Stephenville, TX

1:07 AM CST on February 14, 2016 (GMT -0600)
Clark Municipal

Weather History for KSEP - November, 2013

Change the Weather History Date:

Saturday, November 2, 2013

  Actual Average Record
Temperature  
Mean Temperature 56 °F -  
Max Temperature 67 °F 69 °F 86 °F (2012)
Min Temperature 45 °F 47 °F 25 °F (1991)
Degree Days  
Heating Degree Days 9    
Growing Degree Days 6 (Base 50)    
Moisture  
Dew Point 35 °F    
Average Humidity 49    
Maximum Humidity 75    
Minimum Humidity 23    
Precipitation  
Precipitation 0.00 in - - ()
Sea Level Pressure  
Sea Level Pressure 30.26 in    
Wind  
Wind Speed 6 mph (NNW)    
Max Wind Speed 13 mph    
Max Gust Speed 16 mph    
Visibility 10 miles    
Events      
Averages and records for this station are not official NWS values.
T = Trace of Precipitation, MM = Missing Value Source: NWS Daily Summary

Daily Weather History Graph

Daily Weather History Graph

Search for Another Location

Airport or City:

Trip Planner

Search our weather history database for the weather conditions in past years. The results will help you decide how hot, cold, wet, or windy it might be!

Date:

Astronomy

Nov. 02, 2013 Rise Set
Actual Time 7:50 AM CDT 6:41 PM CDT
Civil Twilight 7:25 AM CDT 7:06 PM CDT
Nautical Twilight 6:56 AM CDT 7:35 PM CDT
Astronomical Twilight 6:27 AM CDT 8:04 PM CDT
Moon 6:52 AM CDT (11/2) 6:12 PM CDT (11/2)
Length of Visible Light 11h 41m
Length of Day
10h 50m
Waning Crescent, 1% of the Moon is Illuminated
Nov 2
Waning Crescent
Nov 3
New
Nov 9
First Quarter
Nov 17
Full
Nov 25
Last Quarter

Hourly Weather History & Observations

Time (CDT) Temp. Windchill Dew Point Humidity Pressure Visibility Wind Dir Wind Speed Gust Speed Precip Events Conditions
12:15 AM 56.5 °F - 38.3 °F 51% 30.17 in 10.0 mi NNW 5.8 mph - N/A   Clear
12:35 AM 55.9 °F - 37.9 °F 51% 30.18 in 10.0 mi NNW 8.1 mph - N/A   Clear
12:55 AM 55.2 °F - 37.8 °F 52% 30.19 in 10.0 mi NNW 5.8 mph - N/A   Clear
1:15 AM 55.6 °F - 37.0 °F 50% 30.19 in 10.0 mi North 8.1 mph - N/A   Clear
1:35 AM 55.6 °F - 36.5 °F 49% 30.19 in 10.0 mi North 8.1 mph - N/A   Clear
1:55 AM 55.0 °F - 36.0 °F 49% 30.20 in 10.0 mi NNW 5.8 mph - N/A   Clear
2:15 AM 53.6 °F - 36.1 °F 52% 30.21 in 10.0 mi Calm Calm - N/A   Clear
2:35 AM 52.2 °F - 36.5 °F 55% 30.22 in 10.0 mi NW 4.6 mph - N/A   Clear
2:55 AM 50.9 °F - 37.2 °F 59% 30.22 in 10.0 mi NW 4.6 mph - N/A   Clear
3:15 AM 50.5 °F - 37.0 °F 60% 30.22 in 10.0 mi NW 4.6 mph - N/A   Clear
3:35 AM 50.2 °F - 37.0 °F 61% 30.22 in 10.0 mi NNW 4.6 mph - N/A   Clear
3:55 AM 50.4 °F - 36.9 °F 60% 30.22 in 10.0 mi NNW 4.6 mph - N/A   Clear
4:15 AM 49.8 °F - 36.9 °F 61% 30.23 in 10.0 mi NW 4.6 mph - N/A   Clear
4:35 AM 48.4 °F - 37.4 °F 66% 30.23 in 10.0 mi NW 3.5 mph - N/A   Clear
4:55 AM 47.5 °F - 37.6 °F 69% 30.23 in 10.0 mi NW 6.9 mph - N/A   Clear
5:15 AM 47.3 °F - 37.6 °F 69% 30.24 in 10.0 mi NW 4.6 mph - N/A   Clear
5:35 AM 45.9 °F 42.9 °F 37.4 °F 72% 30.24 in 10.0 mi NW 5.8 mph - N/A   Clear
5:55 AM 45.9 °F 42.9 °F 37.4 °F 72% 30.24 in 10.0 mi NW 5.8 mph - N/A   Clear
6:15 AM 46.4 °F 43.5 °F 37.0 °F 70% 30.25 in 10.0 mi NW 5.8 mph - N/A   Clear
6:35 AM 46.6 °F - 36.7 °F 68% 30.26 in 10.0 mi NW 6.9 mph - N/A   Clear
6:55 AM 46.4 °F 42.9 °F 36.5 °F 68% 30.26 in 10.0 mi NNW 6.9 mph - N/A   Clear
7:15 AM 45.7 °F 42.7 °F 36.1 °F 69% 30.27 in 10.0 mi NW 5.8 mph - N/A   Clear
7:35 AM 45.9 °F 42.3 °F 35.8 °F 68% 30.27 in 10.0 mi NW 6.9 mph - N/A   Clear
7:55 AM 45.9 °F 42.3 °F 35.6 °F 67% 30.28 in 10.0 mi NW 6.9 mph - N/A   Clear
8:15 AM 45.5 °F 42.5 °F 35.6 °F 68% 30.29 in 10.0 mi NW 5.8 mph - N/A   Clear
8:35 AM 47.7 °F - 35.6 °F 63% 30.30 in 10.0 mi NNW 3.5 mph - N/A   Clear
8:55 AM 49.8 °F - 35.8 °F 59% 30.31 in 10.0 mi NNW 4.6 mph - N/A   Clear
9:15 AM 52.9 °F - 35.2 °F 51% 30.33 in 10.0 mi NNW 4.6 mph - N/A   Clear
9:35 AM 54.7 °F - 33.1 °F 44% 30.33 in 10.0 mi North 12.7 mph - N/A   Clear
9:55 AM 55.4 °F - 33.6 °F 44% 30.34 in 10.0 mi North 11.5 mph 16.1 mph N/A   Clear
10:15 AM 56.5 °F - 33.3 °F 42% 30.35 in 10.0 mi North 8.1 mph 16.1 mph N/A   Clear
10:35 AM 57.6 °F - 33.6 °F 41% 30.35 in 10.0 mi North 9.2 mph - N/A   Clear
10:55 AM 58.5 °F - 34.2 °F 40% 30.35 in 10.0 mi North 9.2 mph - N/A   Clear
12:15 PM 62.1 °F - 33.3 °F 34% 30.36 in 10.0 mi North 6.9 mph - N/A   Clear
12:35 PM 62.8 °F - 33.1 °F 33% 30.35 in 10.0 mi North 4.6 mph - N/A   Clear
12:55 PM 63.9 °F - 32.4 °F 31% 30.34 in 10.0 mi NNW 6.9 mph - N/A   Clear
1:15 PM 64.6 °F - 31.5 °F 29% 30.34 in 10.0 mi North 9.2 mph - N/A   Clear
1:35 PM 65.3 °F - 31.3 °F 28% 30.32 in 10.0 mi North 8.1 mph - N/A   Clear
1:55 PM 66.2 °F - 32.0 °F 28% 30.31 in 10.0 mi NNW 8.1 mph - N/A   Clear
2:15 PM 66.6 °F - 31.3 °F 27% 30.30 in 10.0 mi NNW 10.4 mph - N/A   Clear
2:35 PM 66.4 °F - 30.2 °F 26% 30.29 in 10.0 mi North 11.5 mph - N/A   Clear
2:55 PM 67.1 °F - 29.5 °F 25% 30.28 in 10.0 mi NNW 10.4 mph - N/A   Clear
3:15 PM 67.5 °F - 29.1 °F 24% 30.28 in 10.0 mi North 8.1 mph - N/A   Clear
3:35 PM 67.5 °F - 28.6 °F 23% 30.27 in 10.0 mi North 8.1 mph - N/A   Clear
3:55 PM 67.3 °F - 28.2 °F 23% 30.26 in 10.0 mi North 11.5 mph - N/A   Clear
4:15 PM 67.3 °F - 28.8 °F 24% 30.26 in 10.0 mi NNE 9.2 mph - N/A   Clear
4:35 PM 67.5 °F - 28.8 °F 24% 30.25 in 10.0 mi North 10.4 mph - N/A   Clear
4:55 PM 67.1 °F - 28.6 °F 24% 30.25 in 10.0 mi NNE 5.8 mph - N/A   Clear
5:15 PM 66.7 °F - 28.9 °F 24% 30.24 in 10.0 mi North 8.1 mph - N/A   Clear
5:35 PM 66.2 °F - 29.3 °F 25% 30.24 in 10.0 mi North 4.6 mph - N/A   Clear
5:55 PM 65.5 °F - 29.7 °F 26% 30.24 in 10.0 mi NNE 4.6 mph - N/A   Clear
6:15 PM 64.0 °F - 31.6 °F 30% 30.24 in 10.0 mi Calm Calm - N/A   Clear
6:35 PM 62.4 °F - 32.0 °F 32% 30.24 in 10.0 mi Calm Calm - N/A   Clear
6:55 PM 60.6 °F - 32.2 °F 34% 30.24 in 10.0 mi Calm Calm - N/A   Clear
7:15 PM 59.0 °F - 33.6 °F 38% 30.24 in 10.0 mi Calm Calm - N/A   Clear
7:35 PM 55.8 °F - 36.5 °F 48% 30.24 in 10.0 mi Calm Calm - N/A   Clear
7:55 PM 55.9 °F - 35.1 °F 45% 30.25 in 10.0 mi Calm Calm - N/A   Clear
8:15 PM 55.4 °F - 34.9 °F 46% 30.25 in 4.0 mi Calm Calm - N/A   Clear
8:35 PM 54.7 °F - 35.1 °F 48% 30.26 in 10.0 mi Calm Calm - N/A   Clear
8:55 PM 52.2 °F - 36.0 °F 54% 30.26 in 10.0 mi Calm Calm - N/A   Clear
9:15 PM 51.1 °F - 37.4 °F 60% 30.26 in 5.0 mi Calm Calm - N/A   Clear
9:35 PM 51.8 °F - 36.5 °F 56% 30.26 in 10.0 mi Calm Calm - N/A   Clear
9:55 PM 51.3 °F - 37.8 °F 60% 30.27 in 10.0 mi Calm Calm - N/A   Clear
10:15 PM 48.4 °F - 38.1 °F 68% 30.26 in 10.0 mi Calm Calm - N/A   Clear
10:35 PM 45.0 °F - 37.4 °F 75% 30.26 in 7.0 mi Calm Calm - N/A   Clear
10:55 PM 46.8 °F - 37.6 °F 70% 30.26 in 10.0 mi Calm Calm - N/A   Clear
11:15 PM 48.4 °F - 36.3 °F 63% 30.26 in 10.0 mi Calm Calm - N/A   Clear
11:35 PM 48.9 °F - 36.3 °F 62% 30.26 in 10.0 mi Calm Calm - N/A   Clear
11:55 PM 45.0 °F - 36.5 °F 72% 30.26 in 10.0 mi Calm Calm - N/A   Clear